ホーガン彗星

474P/Hogan (2006)

English version
Home page
Updated on February 21, 2024

---------------------------------------------------------------------

・ プロフィール

・ 軌道要素

                    Epoch = 2006 Dec. 11.0 TT
     T = 2006 Dec. 12.00569 TT        Peri. =  13.46881
     e = 0.1861814                    Node  =  26.92659 2000.0
     q = 2.5509408 AU                 Incl. =   1.10270
       a =  3.1345326 AU   n = 0.17760078   P =   5.55 years

・ 光度変化

        m1 = 16.5 + 5 logΔ + 10.0 log r

---------------------------------------------------------------------

軌道要素は、CBET 5341に掲載されたものです。
光度グラフはComet for Windowsで作成したものです。

---------------------------------------------------------------------

Copyright(C) Seiichi Yoshida (comet@aerith.net). All rights reserved.